Regional Weather Roundup
Issued by NWS Charleston, WV

Home | Current Version | Previous Version | Text Only | Print | Product List | Glossary On
Versions: 1 2 3 4 5 6 7 8 9 10 11 12 13 14 15 16 17 18 19 20 21 22 23 24 25 26 27 28 29 30 31 32 33 34 35 36 37 38 39 40 41 42 43 44 45 46 47 48 49 50
000
ASUS41 KRLX 212310
RWRRLX
West Virginia Regional Weather Roundup
National Weather Service Charleston WV
600 PM EST WED FEB 21 2018

Note: "fair" indicates few or no clouds below 12,000 feet with no
significant weather and/or obstructions to visibility.

WVZ003-220000-
Northern Panhandle of West Virginia

CITY           SKY/WX    TMP DP  RH WIND       PRES   REMARKS
WHEELING       CLOUDY    43  39  86 N13       30.44R
$$

WVZ009-220000-
Northwest West Virginia

CITY           SKY/WX    TMP DP  RH WIND       PRES   REMARKS
PARKERSBURG    CLOUDY    54  49  83 N6        30.42R
$$

WVZ006-220000-
Western West Virginia

CITY           SKY/WX    TMP DP  RH WIND       PRES   REMARKS
HUNTINGTON     LGT RAIN  60  54  80 E6        30.36R
$$

WVZ015-220000-
West Central West Virginia

CITY           SKY/WX    TMP DP  RH WIND       PRES   REMARKS
CHARLESTON     CLOUDY    63  57  81 CALM      30.35R
$$

WVZ022-031-220000-
North Central West Virginia

CITY           SKY/WX    TMP DP  RH WIND       PRES   REMARKS
CLARKSBURG     CLOUDY    61  52  72 NE6       30.37R
MORGANTOWN     CLOUDY    58  52  80 NE8       30.39R
$$

WVZ025-035-042-045-220000-
Southern West Virginia

CITY           SKY/WX    TMP DP  RH WIND       PRES   REMARKS
BECKLEY        CLOUDY    62  58  86 N10       30.38R
LOGAN          LGT RAIN  63  61  94 CALM      30.36R
BLUEFIELD      MOCLDY    70  52  52 VRB3      30.38R
LEWISBURG      FAIR      65  57  75 CALM      30.37R
$$

WVZ047-220000-
Northern Mountains of West Virginia

CITY           SKY/WX    TMP DP  RH WIND       PRES   REMARKS
ELKINS         RAIN      59  57  93 N3        30.39R FOG
$$

WVZ052-220000-
Eastern Panhandle of West Virginia

CITY           SKY/WX    TMP DP  RH WIND       PRES   REMARKS
MARTINSBURG    CLOUDY    68  64  87 CALM      30.27R
PETERSBURG     CLOUDY    71  59  64 NW9       30.30R
$$



USA.gov is the U.S. government's official web portal to all federal, state and local government web resources and services.